User: anonymous   Login
Location: Unspecified
(0.0000°N, 0.0000°E)
Time: 12:06:15
(UTC+00:00)
Language:

STARLINK-1037 - Orbit

View from above orbital plane
View from above orbital plane
View from above satellite
View from above satellite

Ground track
Ground track

The orbit data is extracted from the following two-line orbital elements,

1 44742U 19074AF  20293.77452632 +.00002544 +00000-0 +18963-3 0  9999
2 44742 053.0000 035.7226 0002290 089.4817 270.6433 15.06399526052194
Epoch (UTC): 19 October 2020 18:35:19
Eccentricity: 0.0002290
inclination: 53.0000°
perigee height: 545 km
apogee height: 549 km
right ascension of ascending node: 35.7226°
argument of perigee: 89.4817°
revolutions per day: 15.06399526
mean anomaly at epoch: 270.6433°
orbit number at epoch: 5219

The dashed part of the orbit path shows where the satellite is in the earth's shadow,  

DLR